This demonstration page uses our WeatherBlox Daily Observations layout. Learn more.

Left ArrowRight Arrow

39.08367, -84.50855

Hourly Observations for March 24, 2016

Temp ( °F °C ) Dew Point ( °F °C ) Humidity (%) Winds ( mph kmh ) Pressure ( in mb ) Visibility ( mi km ) Precip ( " mm )
12:53 am 00:53 Cloudy 53 11.7 47 8.3 80 80 SW 6 9 29.9 1013 10 16.0934 N/A
1:53 am 01:53 Cloudy 56 13.3 46 7.8 70 70 S 7 11 29.89 1012 10 16.0934 N/A
2:53 am 02:53 Cloudy 58 14.4 46 7.8 65 65 S 9 15 29.88 1012 10 16.0934 N/A
3:53 am 03:53 Cloudy 60 15.6 47 8.3 62 62 S 12 19 29.85 1011 10 16.0934 N/A
4:53 am 04:53 Cloudy 60 15.6 47 8.3 62 62 S 12 19 29.83 1010 10 16.0934 N/A
5:53 am 05:53 Cloudy 61 16.1 48 8.9 63 63 S 12 19 29.82 1010 10 16.0934 N/A
6:53 am 06:53 Cloudy 61 16.1 48 8.9 63 63 S 12 19 29.82 1010 10 16.0934 N/A
7:53 am 07:53 Cloudy 62 16.7 49 9.4 62 62 S 16 26 29.8 1009 10 16.0934 N/A
8:53 am 08:53 Cloudy 63 17.2 50 10 63 63 S 17 28 29.78 1009 10 16.0934 N/A
9:53 am 09:53 Cloudy 63 17.2 52 11.1 68 68 S 16 26 29.75 1008 10 16.0934 N/A
10:53 am 10:53 Mostly Cloudy 66 18.9 53 11.7 63 63 S 21 33 29.72 1007 10 16.0934 N/A
11:53 am 11:53 Mostly Cloudy 67 19.4 53 11.7 61 61 SSW 22 35 29.7 1006 10 16.0934 N/A
12:53 pm 12:53 Cloudy 69 20.6 54 12.2 59 59 S 21 33 29.64 1004 10 16.0934 N/A
1:53 pm 13:53 Cloudy 67 19.4 55 12.8 66 66 S 23 37 29.61 1003 10 16.0934 N/A
2:53 pm 14:53 Cloudy 66 18.9 54 12.2 65 65 S 21 33 29.58 1002 10 16.0934 N/A
3:53 pm 15:53 Cloudy 65 18.3 56 13.3 73 73 S 21 33 29.57 1001 10 16.0934 N/A
4:53 pm 16:53 Cloudy with Light Rain 63 17.2 57 13.9 81 81 S 35 56 29.55 1001 9 14.48406 N/A
5:53 pm 17:53 Cloudy with Light Rain 61 16.1 58 14.4 90 90 SSW 15 24 29.55 1001 6 9.65604 0.02 0.508
6:01 pm 18:01 Cloudy with Light Rain 61 16.1 59 15 93 93 S 20 31 29.56 1001 9 14.48406 N/A
6:53 pm 18:53 Cloudy with Light Rain 61 16 N/A N/A W 17 28 29.57 1001 4 6.43736 0.05 1.27
7:01 pm 19:01 Cloudy with Light Rain 58 14.4 54 12.2 87 87 SW 21 33 29.59 1002 3 4.82802 0.19 4.826
7:11 pm 19:11 Cloudy with Light Rain 58 14.4 54 12.2 87 87 SW 16 26 29.59 1002 3 4.82802 0.32 8.128
7:53 pm 19:53 Cloudy with Rain 56 13.3 53 11.7 90 90 SSW 10 17 29.6 1002 4 6.43736 0.48 12.192
8:53 pm 20:53 Cloudy 56 13.3 53 11.7 90 90 SSW 9 15 29.6 1002 10 16.0934 0.05 1.27
9:53 pm 21:53 Cloudy 56 13.3 54 12.2 93 93 WNW 9 15 29.64 1004 10 16.0934 N/A
10:06 pm 22:06 Cloudy 55 13 N/A N/A NW 12 19 29.65 1004 10 16.0934 N/A
10:53 pm 22:53 Mostly Cloudy 54 12 N/A N/A WNW 9 15 29.68 1005 10 16.0934 0.01 0.254
11:53 pm 23:53 Cloudy 51 10.6 51 10.6 100 100 W 9 15 29.71 1006 10 16.0934 N/A

Powered by AerisWeather